📊 John's Weather Station

Last reading: 2022-06-25 10:31:18

TEMPERATURE

--

Temperature 20 readings
Min Max Average
10.16 °C 9.73 °C 9.96 °C

HUMIDITY

--

Humidity 20 readings
Min Max Average
90.02 % 93.04 % 91.87 %

View Latest 20 Readings

ID Sensor Location Temp Humid Bar Timestamp
124139 BME280 Lounge 12.36 90.02 1017.06 2022-06-25 10:31:18
124138 BME280 Lounge 12.12 90.30 1017.04 2022-06-25 10:21:41
124137 BME280 Lounge 11.74 90.56 1016.99 2022-06-25 10:12:03
124136 BME280 Lounge 11.57 90.94 1017.03 2022-06-25 10:02:26
124135 BME280 Lounge 11.13 91.19 1016.92 2022-06-25 09:52:51
124134 BME280 Lounge 10.79 91.14 1016.82 2022-06-25 09:43:14
124133 BME280 Lounge 10.68 91.34 1016.95 2022-06-25 09:33:39
124132 BME280 Lounge 10.52 91.52 1016.94 2022-06-25 09:24:03
124131 BME280 Lounge 10.35 91.87 1016.91 2022-06-25 09:14:27
124130 BME280 Lounge 10.16 92.48 1016.86 2022-06-25 09:04:52
124129 BME280 Lounge 9.73 92.66 1016.79 2022-06-25 08:55:16
124128 BME280 Lounge 9.64 92.82 1016.71 2022-06-25 08:45:44
124127 BME280 Lounge 9.26 93.04 1016.73 2022-06-25 08:36:05
124126 BME280 Lounge 8.89 93.04 1016.68 2022-06-25 08:26:27
124125 BME280 Lounge 8.57 92.71 1016.64 2022-06-25 08:16:49
124124 BME280 Lounge 8.40 92.38 1016.67 2022-06-25 08:07:12
124123 BME280 Lounge 8.32 92.20 1016.62 2022-06-25 07:57:34
124122 BME280 Lounge 8.35 92.24 1016.57 2022-06-25 07:47:56
124121 BME280 Lounge 8.36 92.51 1016.54 2022-06-25 07:38:20
124120 BME280 Lounge 8.28 92.51 1016.61 2022-06-25 07:28:42